GEC475 KPIE-KSFO

Flight info

Callsign GEC475
Flight time N/A
Altitude 34000
Route DORMR PSTOL FROOT BUNNZ Y290 BLVNS LFT STUFT KIRST GLIZY CURLY/N0485F360 J15 TANER PGA GHABY OAL INYOE DYAMD5
Aircraft MD11/H-SDE1E2E3FGHIJ2J3J4J5M1RWXY/LB1D1

Departure

Time 2026-04-26 15:26
Airport St. Petersburg Clearwater International Airport (KPIE)

Arrival

Time N/A
Airport San Francisco International Airport (KSFO)
Time Latitude Longitude Altitude Speed Heading
2026-04-26 15:13 27.92035 -82.69409 23 ft 0 kts 161°
2026-04-26 15:19 27.92021 -82.69401 26 ft 4 kts 148°
2026-04-26 15:19 27.92019 -82.69399 31 ft 4 kts 109°
2026-04-26 15:20 27.92026 -82.69408 28 ft 4 kts 47°
2026-04-26 15:20 27.92028 -82.69407 23 ft 0 kts 36°
2026-04-26 15:22 27.92029 -82.69407 23 ft 0 kts 36°
2026-04-26 15:23 27.92032 -82.69403 23 ft 2 kts 38°
2026-04-26 15:23 27.92046 -82.69375 26 ft 6 kts 71°
2026-04-26 15:23 27.92038 -82.69318 27 ft 9 kts 111°
2026-04-26 15:23 27.92007 -82.69244 25 ft 12 kts 107°
2026-04-26 15:24 27.92030 -82.69179 27 ft 6 kts 22°
2026-04-26 15:24 27.92074 -82.69186 25 ft 9 kts 350°
2026-04-26 15:24 27.92150 -82.69201 25 ft 13 kts 353°
2026-04-26 15:24 27.92255 -82.69208 24 ft 17 kts
2026-04-26 15:25 27.92326 -82.69119 28 ft 12 kts 84°
2026-04-26 15:25 27.92294 -82.69071 27 ft 14 kts 149°
2026-04-26 15:25 27.91756 -82.68969 28 ft 114 kts 171°
2026-04-26 15:25 27.90730 -82.68802 38 ft 179 kts 173°
2026-04-26 15:26 27.89446 -82.68541 619 ft 192 kts 169°
2026-04-26 15:26 27.88086 -82.68241 1225 ft 210 kts 177°
2026-04-26 15:26 27.86653 -82.68647 1640 ft 222 kts 220°
2026-04-26 15:26 27.85948 -82.70123 2421 ft 215 kts 264°
2026-04-26 15:27 27.86014 -82.71820 3081 ft 226 kts 272°
2026-04-26 15:27 27.86056 -82.73682 3455 ft 248 kts 269°
2026-04-26 15:27 27.86017 -82.75699 4107 ft 265 kts 268°
2026-04-26 15:27 27.85899 -82.77835 4891 ft 278 kts 264°
2026-04-26 15:28 27.85581 -82.79896 6400 ft 256 kts 258°
2026-04-26 15:28 27.85135 -82.81900 7178 ft 267 kts 255°
2026-04-26 15:28 27.84550 -82.83910 8070 ft 271 kts 252°
2026-04-26 15:28 27.83859 -82.85905 8971 ft 274 kts 250°
2026-04-26 15:29 27.83090 -82.87893 9851 ft 278 kts 249°
2026-04-26 15:29 27.82250 -82.89926 10260 ft 299 kts 248°
2026-04-26 15:29 27.80221 -82.94525 10659 ft 350 kts 246°
2026-04-26 15:30 27.77915 -82.99472 12196 ft 362 kts 245°
2026-04-26 15:30 27.76719 -83.01998 12962 ft 368 kts 245°
2026-04-26 15:30 27.75515 -83.04530 13674 ft 373 kts 245°
2026-04-26 15:31 27.74278 -83.07125 14341 ft 378 kts 245°
2026-04-26 15:31 27.71758 -83.12401 15662 ft 385 kts 245°
2026-04-26 15:31 27.70482 -83.15070 16289 ft 388 kts 245°
2026-04-26 15:32 27.68334 -83.19558 17320 ft 394 kts 245°
2026-04-26 15:32 27.66583 -83.23215 18125 ft 398 kts 244°
2026-04-26 15:32 27.65265 -83.25978 18626 ft 401 kts 246°
2026-04-26 15:33 27.64265 -83.28896 19109 ft 399 kts 258°
2026-04-26 15:33 27.63751 -83.31972 19592 ft 400 kts 265°
2026-04-26 15:33 27.63450 -83.35097 20077 ft 402 kts 267°
2026-04-26 15:33 27.63216 -83.38204 20556 ft 404 kts 267°
2026-04-26 15:34 27.62980 -83.41371 21050 ft 407 kts 267°
2026-04-26 15:34 27.62722 -83.44606 21543 ft 410 kts 266°
2026-04-26 15:34 27.62448 -83.47815 22052 ft 413 kts 266°
2026-04-26 15:34 27.62159 -83.51047 22562 ft 416 kts 266°
2026-04-26 15:35 27.61860 -83.54296 23082 ft 418 kts 266°
2026-04-26 15:35 27.61554 -83.57567 23627 ft 421 kts 266°
2026-04-26 15:35 27.61245 -83.60855 24084 ft 423 kts 266°
2026-04-26 15:35 27.60932 -83.64165 24554 ft 425 kts 266°
2026-04-26 15:36 27.60617 -83.67488 25032 ft 428 kts 266°
2026-04-26 15:36 27.60304 -83.70789 25513 ft 430 kts 266°
2026-04-26 15:36 27.59984 -83.74149 25983 ft 433 kts 266°
2026-04-26 15:36 27.59661 -83.77532 26453 ft 435 kts 266°
2026-04-26 15:37 27.59336 -83.80935 26919 ft 438 kts 265°
2026-04-26 15:37 27.59008 -83.84358 27376 ft 440 kts 265°
2026-04-26 15:37 27.58678 -83.87797 27830 ft 443 kts 265°
2026-04-26 15:37 27.58344 -83.91258 28272 ft 445 kts 265°
2026-04-26 15:38 27.58008 -83.94737 28728 ft 448 kts 265°
2026-04-26 15:38 27.57669 -83.98235 29154 ft 450 kts 265°
2026-04-26 15:38 27.57327 -84.01756 29588 ft 453 kts 265°
2026-04-26 15:38 27.56983 -84.05293 29980 ft 455 kts 265°
2026-04-26 15:39 27.56636 -84.08852 30315 ft 458 kts 265°
2026-04-26 15:39 27.56286 -84.12426 30621 ft 460 kts 265°
2026-04-26 15:39 27.56037 -84.16029 30913 ft 460 kts 271°
2026-04-26 15:39 27.56124 -84.18404 31167 ft 458 kts 276°
2026-04-26 15:40 27.56734 -84.23153 31659 ft 457 kts 282°
2026-04-26 15:40 27.57349 -84.26660 32036 ft 456 kts 282°
2026-04-26 15:40 27.57989 -84.30161 32427 ft 454 kts 283°
2026-04-26 15:40 27.58611 -84.33638 32832 ft 452 kts 282°
2026-04-26 15:41 27.59209 -84.37114 33225 ft 451 kts 282°
2026-04-26 15:41 27.59788 -84.40582 33610 ft 449 kts 282°
2026-04-26 15:41 27.60352 -84.44041 33909 ft 450 kts 282°
2026-04-26 15:41 27.60913 -84.47520 33976 ft 451 kts 282°
2026-04-26 15:42 27.62030 -84.54489 33989 ft 452 kts 282°
2026-04-26 15:42 27.63136 -84.61416 33991 ft 452 kts 282°
2026-04-26 15:43 27.64253 -84.68430 33989 ft 451 kts 282°
2026-04-26 15:44 27.65899 -84.78803 33994 ft 449 kts 282°
2026-04-26 15:44 27.67544 -84.89211 33994 ft 449 kts 282°
2026-04-26 15:45 27.69180 -84.99626 33996 ft 449 kts 282°
2026-04-26 15:46 27.70801 -85.10021 33994 ft 446 kts 282°
2026-04-26 15:46 27.71675 -85.15744 33993 ft 445 kts 282°
2026-04-26 15:47 27.73440 -85.27225 33996 ft 445 kts 282°
2026-04-26 15:48 27.74606 -85.34083 33999 ft 444 kts 284°
2026-04-26 15:48 27.75902 -85.40904 33999 ft 444 kts 284°
2026-04-26 15:49 27.77203 -85.47703 33995 ft 441 kts 284°
2026-04-26 15:49 27.78487 -85.54468 33996 ft 441 kts 284°
2026-04-26 15:50 27.79762 -85.61234 33999 ft 441 kts 284°
2026-04-26 15:50 27.81026 -85.67966 33998 ft 441 kts 284°
2026-04-26 15:51 27.82294 -85.74733 33998 ft 441 kts 284°
2026-04-26 15:51 27.83559 -85.81513 33998 ft 441 kts 284°
2026-04-26 15:52 27.84821 -85.88287 33996 ft 441 kts 284°
2026-04-26 15:52 27.86079 -85.95065 33996 ft 441 kts 284°
2026-04-26 15:53 27.87334 -86.01845 33998 ft 441 kts 284°
2026-04-26 15:53 27.88584 -86.08619 33997 ft 440 kts 284°
2026-04-26 15:54 27.89832 -86.15400 33998 ft 441 kts 284°
2026-04-26 15:54 27.91068 -86.22157 33993 ft 435 kts 284°
2026-04-26 15:55 27.92271 -86.28843 33997 ft 433 kts 284°
2026-04-26 15:55 27.93479 -86.35519 34000 ft 433 kts 284°
2026-04-26 15:56 27.94692 -86.42196 33998 ft 433 kts 284°
2026-04-26 15:56 27.95902 -86.48869 33998 ft 433 kts 284°
2026-04-26 15:57 27.97111 -86.55548 33998 ft 433 kts 284°
2026-04-26 15:57 27.98300 -86.62144 33998 ft 429 kts 284°
2026-04-26 15:58 27.99488 -86.68753 33999 ft 428 kts 284°
2026-04-26 15:58 28.00580 -86.74258 34001 ft 427 kts 288°
2026-04-26 15:59 28.02354 -86.80612 34000 ft 426 kts 291°
2026-04-26 15:59 28.04277 -86.86975 34001 ft 429 kts 290°
2026-04-26 16:00 28.06193 -86.93384 33999 ft 430 kts 290°
2026-04-26 16:00 28.08083 -86.99786 34000 ft 426 kts 290°
2026-04-26 16:01 28.09953 -87.06155 34000 ft 426 kts 290°
2026-04-26 16:01 28.11820 -87.12525 33998 ft 426 kts 290°
2026-04-26 16:02 28.13684 -87.18897 33998 ft 426 kts 290°
2026-04-26 16:02 28.15532 -87.25229 33998 ft 426 kts 290°
2026-04-26 16:03 28.17389 -87.31601 33998 ft 426 kts 290°
2026-04-26 16:03 28.19239 -87.37966 33997 ft 424 kts 290°
2026-04-26 16:04 28.21083 -87.44317 33998 ft 424 kts 290°
2026-04-26 16:04 28.22923 -87.50669 33998 ft 424 kts 290°
2026-04-26 16:05 28.24762 -87.57028 33998 ft 424 kts 290°
2026-04-26 16:05 28.26593 -87.63385 33998 ft 424 kts 290°
2026-04-26 16:06 28.28407 -87.69757 33998 ft 424 kts 290°
2026-04-26 16:06 28.30222 -87.76110 33995 ft 423 kts 290°
2026-04-26 16:07 28.32040 -87.82456 33993 ft 422 kts 290°
2026-04-26 16:07 28.33843 -87.88752 33992 ft 422 kts 290°
2026-04-26 16:08 28.35657 -87.95097 34010 ft 422 kts 290°
2026-04-26 16:08 28.37961 -88.01195 33994 ft 420 kts 298°
2026-04-26 16:09 28.40750 -88.07016 33993 ft 420 kts 300°
2026-04-26 16:09 28.43570 -88.12814 33992 ft 419 kts 299°
2026-04-26 16:10 28.46356 -88.18631 33993 ft 419 kts 299°
2026-04-26 16:10 28.49123 -88.24458 33993 ft 419 kts 299°
2026-04-26 16:11 28.51883 -88.30289 33993 ft 419 kts 299°
2026-04-26 16:11 28.54643 -88.36127 33993 ft 419 kts 299°
2026-04-26 16:12 28.57399 -88.41965 33993 ft 419 kts 299°
2026-04-26 16:12 28.61532 -88.50734 33991 ft 420 kts 299°
2026-04-26 16:13 28.64287 -88.56589 33990 ft 420 kts 299°
2026-04-26 16:13 28.67039 -88.62446 33996 ft 419 kts 299°
2026-04-26 16:14 28.69763 -88.68253 33993 ft 418 kts 299°
2026-04-26 16:15 28.73871 -88.77026 33993 ft 418 kts 299°
2026-04-26 16:15 28.76600 -88.82882 33990 ft 418 kts 298°
2026-04-26 16:16 28.80677 -88.91674 33990 ft 418 kts 298°
2026-04-26 16:16 28.83402 -88.97534 33990 ft 418 kts 298°
2026-04-26 16:17 28.86126 -89.03392 33988 ft 418 kts 298°
2026-04-26 16:17 28.88850 -89.09259 33988 ft 418 kts 298°
2026-04-26 16:18 28.92933 -89.18067 33988 ft 418 kts 298°
2026-04-26 16:19 28.96989 -89.26837 33991 ft 417 kts 298°
2026-04-26 16:20 29.01049 -89.35634 33987 ft 417 kts 298°
2026-04-26 16:20 29.05102 -89.44436 33982 ft 417 kts 298°
2026-04-26 16:21 29.07802 -89.50311 33982 ft 417 kts 298°
2026-04-26 16:21 29.10497 -89.56183 33979 ft 417 kts 298°
2026-04-26 16:22 29.13190 -89.62060 33982 ft 417 kts 298°
2026-04-26 16:22 29.15873 -89.67948 33983 ft 417 kts 298°
2026-04-26 16:23 29.18547 -89.73842 33982 ft 417 kts 298°
2026-04-26 16:23 29.21228 -89.79734 33982 ft 417 kts 298°
2026-04-26 16:24 29.23909 -89.85620 33980 ft 417 kts 298°
2026-04-26 16:24 29.26595 -89.91525 33988 ft 419 kts 298°
2026-04-26 16:25 29.29289 -89.97455 33985 ft 420 kts 298°
2026-04-26 16:25 29.31976 -90.03382 33996 ft 417 kts 298°
2026-04-26 16:26 29.34195 -90.08282 34003 ft 416 kts 298°
2026-04-26 16:26 29.37312 -90.15174 34014 ft 416 kts 298°
2026-04-26 16:27 29.39956 -90.21031 34017 ft 416 kts 298°
2026-04-26 16:27 29.42616 -90.26932 34018 ft 417 kts 298°
2026-04-26 16:28 29.45273 -90.32835 34017 ft 417 kts 298°
2026-04-26 16:28 29.47932 -90.38751 33994 ft 417 kts 298°
2026-04-26 16:29 29.50582 -90.44656 34006 ft 416 kts 298°
2026-04-26 16:29 29.53226 -90.50565 34004 ft 416 kts 297°
2026-04-26 16:30 29.55854 -90.56488 34013 ft 417 kts 297°
2026-04-26 16:30 29.58493 -90.62420 34008 ft 417 kts 298°
2026-04-26 16:31 29.61138 -90.68355 34012 ft 417 kts 298°
2026-04-26 16:31 29.63765 -90.74254 34006 ft 417 kts 298°
2026-04-26 16:32 29.65978 -90.79230 33994 ft 417 kts 297°
2026-04-26 16:32 29.69046 -90.86138 33995 ft 417 kts 297°
2026-04-26 16:33 29.71683 -90.92087 33992 ft 417 kts 297°
2026-04-26 16:33 29.74317 -90.98036 33983 ft 417 kts 297°
2026-04-26 16:34 29.76948 -91.03990 33985 ft 418 kts 297°
2026-04-26 16:34 29.79577 -91.09949 33984 ft 418 kts 297°
2026-04-26 16:35 29.82207 -91.15917 33978 ft 418 kts 297°
2026-04-26 16:35 29.84866 -91.21961 33989 ft 427 kts 297°
2026-04-26 16:36 29.87554 -91.28081 33988 ft 429 kts 297°
2026-04-26 16:36 29.90243 -91.34216 33987 ft 429 kts 297°
2026-04-26 16:37 29.92914 -91.40362 33984 ft 429 kts 297°
2026-04-26 16:37 29.95137 -91.45478 33987 ft 429 kts 297°
2026-04-26 16:38 29.98253 -91.52630 33986 ft 429 kts 297°
2026-04-26 16:38 30.00911 -91.58732 33979 ft 423 kts 297°
2026-04-26 16:39 30.03548 -91.64794 33982 ft 422 kts 297°
2026-04-26 16:39 30.06183 -91.70859 33982 ft 423 kts 297°
2026-04-26 16:40 30.08816 -91.76930 33979 ft 423 kts 297°
2026-04-26 16:40 30.11454 -91.83024 33984 ft 428 kts 297°
2026-04-26 16:41 30.14146 -91.89253 33972 ft 437 kts 297°
2026-04-26 16:41 30.16850 -91.95521 33968 ft 434 kts 297°
2026-04-26 16:42 30.19540 -92.01764 33971 ft 433 kts 297°
2026-04-26 16:42 30.22223 -92.08001 33971 ft 433 kts 297°
2026-04-26 16:43 30.24905 -92.14248 33967 ft 433 kts 297°
2026-04-26 16:43 30.27451 -92.20569 33967 ft 434 kts 293°
2026-04-26 16:44 30.29697 -92.27051 33973 ft 434 kts 292°
2026-04-26 16:44 30.31891 -92.33524 33968 ft 430 kts 292°
2026-04-26 16:45 30.34093 -92.39957 33966 ft 430 kts 293°
2026-04-26 16:45 30.36287 -92.46339 33969 ft 430 kts 293°
2026-04-26 16:46 30.38501 -92.52784 33976 ft 434 kts 292°
2026-04-26 16:46 30.40750 -92.59344 33971 ft 440 kts 292°
2026-04-26 16:47 30.43007 -92.65940 33971 ft 441 kts 292°
2026-04-26 16:47 30.45245 -92.72499 33968 ft 434 kts 293°
2026-04-26 16:48 30.47462 -92.79002 33968 ft 433 kts 292°
2026-04-26 16:48 30.49296 -92.84391 33975 ft 433 kts 292°